Home > Weather > Potsdam > Past weeks

Flag for Germany Past Weather in Potsdam, Brandenburg, Germany — Yesterday and Last 2 Weeks

Now
79 °F

Scattered clouds.


Feels Like: 80 °F
Forecast: 62 / 75 °F
Wind: 7 mph from Northeast

Location: Berlin-Tegel

Current Time: May 31, 2016 at 4:16:31 PM

Latest Report: May 31, 2016 at 3:20 PM


Visibility: N/A

Pressure: 29.83 "Hg

Humidity: 58%

Dew Point: 63 °F

Location of PotsdamLocation

Past Weather in Potsdam — Graph

°F

Potsdam Temperature Yesterday

Maximum temperature yesterday: 81 °F (at 12:20 PM)
Minimum temperature yesterday: 63 °F (at 7:50 PM)
Average temperature yesterday: 70 °F

High & Low Weather Summary for the Past Weeks

 TemperatureHumidityPressure
High84 °F (May 22, 2:50 PM)100% (May 24, 5:20 AM)30.07 "Hg (May 24, 5:20 AM)
Low43 °F (May 17, 4:50 AM)20% (May 19, 2:50 PM)29.65 "Hg (May 30, 3:50 AM)
Average63 °F65%29.89 "Hg
* Reported May 16 2:20 PM — May 31 2:50 PM, Potsdam, Weather by CustomWeather, © 2016

Note: Actual official high and low records may vary slightly from our data, if they occured in-between our weather recording intervals... More about our weather records

Advertising

Potsdam Weather History for the Previous 24 Hours

Scroll right to see more
 ConditionsComfort  
Time TempWeatherWind HumidityBarometerVisibility
2:50 PM
Tue, May 31
79 °FScattered clouds.8 mph58%29.83 "HgN/A
2:20 PM77 °FScattered clouds.5 mph57%29.83 "HgN/A
1:50 PM75 °FScattered clouds.6 mph57%29.83 "HgN/A
1:20 PM75 °FScattered clouds.8 mph57%29.83 "HgN/A
12:50 PM73 °FScattered clouds.7 mph65%29.83 "HgN/A
12:20 PM73 °FBroken clouds.6 mph61%29.83 "HgN/A
11:50 AM73 °FBroken clouds.3 mph65%29.83 "HgN/A
11:20 AM70 °FPartly sunny.2 mph73%29.83 "HgN/A
10:50 AM70 °FBroken clouds.2 mph73%29.83 "Hg6 mi
10:20 AM66 °FLight rain. Broken clouds.3 mph83%29.83 "Hg4 mi
9:50 AM66 °FFog.5 mph83%29.83 "Hg3 mi
9:20 AM64 °FFog.7 mph88%29.83 "Hg3 mi
8:50 AM64 °FFog.1 mph94%29.83 "Hg2 mi
8:20 AM63 °FFog.2 mph100%29.80 "Hg1 mi
7:50 AM63 °FFog.1 mph94%29.80 "Hg1 mi
7:20 AM61 °FFog.2 mph94%29.80 "Hg1 mi
6:50 AM61 °FFog.3 mph94%29.80 "Hg0 mi
6:20 AM59 °FFog.1 mph100%29.80 "Hg1 mi
5:50 AM57 °FFog.1 mph94%29.80 "Hg1 mi
5:20 AM59 °FFog.2 mph94%29.80 "Hg1 mi
4:50 AM61 °FFog.2 mph94%29.77 "Hg1 mi
4:20 AM61 °FFog.1 mph94%29.77 "Hg2 mi
3:50 AM61 °FCool.2 mph94%29.77 "Hg5 mi
3:20 AM61 °FCool.3 mph100%29.77 "Hg6 mi
2:50 AM61 °FCool.1 mph94%29.77 "HgN/A
2:20 AM61 °FCool.1 mph94%29.77 "HgN/A
1:50 AM61 °FFog.2 mph94%29.77 "HgN/A
1:20 AM63 °FFog.2 mph94%29.77 "HgN/A
12:50 AM64 °FClear.2 mph88%29.77 "Hg10 mi
12:20 AM64 °FPassing clouds.3 mph88%29.77 "HgN/A
11:50 PM
Mon, May 30
63 °FPassing clouds.3 mph88%29.77 "HgN/A
11:20 PM63 °FPassing clouds.5 mph94%29.74 "HgN/A
10:50 PM63 °FPartly cloudy.2 mph88%29.74 "HgN/A
10:20 PM63 °FPartly cloudy.6 mph94%29.74 "HgN/A
9:50 PM64 °FFog.2 mph83%29.74 "HgN/A
9:20 PM64 °FPassing clouds.3 mph83%29.71 "HgN/A
8:50 PM64 °FPartly sunny.3 mph88%29.71 "HgN/A
8:20 PM64 °FBroken clouds.2 mph83%29.71 "HgN/A
7:50 PM63 °FStrong thunderstorms. Partly sunny.26 mph83%29.74 "Hg1 mi
7:20 PM73 °FThundershowers. Partly sunny.7 mph69%29.68 "HgN/A
6:50 PM72 °FScattered clouds.8 mph73%29.68 "HgN/A
6:20 PM72 °FScattered clouds.7 mph73%29.68 "HgN/A
5:50 PM72 °FPartly sunny.7 mph73%29.68 "HgN/A
5:20 PM70 °FPartly sunny.7 mph78%29.68 "HgN/A
4:50 PM70 °FPartly sunny.3 mph78%29.68 "HgN/A
4:20 PM70 °FPartly sunny.7 mph78%29.68 "HgN/A
Weather by CustomWeather, © 2016

See weather overviewHow to use our weather pages